Vorticity
4 11 11 6 6 6 8 8 7 7 7 6 5 4 5 4 4 6 4 9 8 4 8 8 7 10 10 7 6 7 8 8 9 9 10 11 11 6 3 4 5 5 10 -3 5 3 5 5 4
8 3 2 9 9 11 10 9 7 8 9 7 7 7 8 7 6 6 8 8 8 12 10 16 10 6 5 5 5 3 2 3 3 3 3 5 7 9 11 11 6 4 4 8 2 0 4 6 5
-11 -8 -0 2 3 6 8 7 7 7 7 8 8 6 6 6 6 7 7 4 10 15 8 8 7 6 4 2 2 3 3 3 4 7 7 5 3 6 4 7 11 9 8 5 6 5 3 0 5
6 -4 -4 -8 -4 -4 -1 -1 13 7 8 7 7 8 8 8 8 9 10 10 9 9 7 2 4 2 2 1 1 2 3 3 9 9 8 8 7 9 10 6 7 7 11 14 7 3 2 5 4
24 7 -1 0 1 -3 -7 -6 -0 7 5 11 12 12 9 3 10 13 10 12 6 6 7 8 4 2 2 2 2 3 3 5 4 2 0 1 4 3 3 8 4 5 5 4 12 13 7 3 3
12 12 17 24 1 4 5 -1 -4 -3 -2 -2 2 2 3 4 -2 3 10 9 6 7 7 6 4 2 3 3 2 4 6 2 -1 1 1 -0 3 -0 1 3 3 2 4 4 5 5 9 13 7
11 13 17 20 16 9 8 7 6 5 -8 -4 -1 6 4 7 -2 8 6 7 6 7 7 7 2 2 2 2 1 5 5 2 3 1 3 0 3 3 1 6 5 2 7 7 5 3 5 7 9
8 6 7 10 15 20 21 21 17 15 19 10 -1 5 5 2 1 6 4 6 7 6 7 7 5 4 2 1 0 1 2 3 3 3 3 4 4 5 4 4 3 3 4 3 4 4 4 6 8
7 7 6 6 5 18 11 8 7 11 14 16 13 8 7 6 5 3 8 9 7 8 5 7 7 5 3 3 2 2 3 2 2 5 2 2 4 4 6 6 5 4 5 4 5 5 3 5 5
7 9 5 6 5 5 7 2 9 10 7 11 9 8 8 17 8 11 10 9 7 6 6 7 8 6 4 3 4 5 5 6 6 3 5 6 5 7 7 6 4 6 5 5 7 4 3 4 5
5 4 6 8 6 3 5 7 3 6 -2 2 5 10 8 6 9 12 9 7 8 7 7 6 6 6 6 5 5 5 6 5 4 4 4 4 5 6 5 5 4 3 1 5 10 6 3 3 3
6 6 6 4 9 10 6 4 6 8 8 5 2 9 16 13 13 8 8 8 7 6 5 5 6 7 7 8 7 7 6 4 5 5 7 7 5 5 4 3 3 2 3 2 6 9 16 10 4
6 5 7 6 6 7 9 11 9 12 10 9 10 5 11 12 10 9 7 6 6 6 8 8 7 7 6 6 6 5 5 6 6 6 7 6 5 4 3 2 3 3 7 7 9 5 9 14 12
8 5 4 8 6 6 8 8 9 14 5 9 13 8 9 8 7 8 7 6 5 6 7 8 9 8 7 7 6 5 6 6 6 6 6 5 3 3 5 8 14 18 17 17 9 8 4 11 8
9 9 5 5 5 7 3 11 11 2 8 10 11 7 5 9 8 8 6 7 7 6 6 5 6 6 7 7 7 7 7 7 8 6 4 3 7 16 21 15 17 10 11 12 10 13 13 -5 6
6 7 8 6 3 5 4 9 6 7 7 10 11 7 8 11 8 6 5 4 4 4 5 5 5 5 4 6 8 9 9 8 6 3 4 19 16 8 9 10 10 12 9 7 8 9 7 1 -5
8 7 6 5 4 2 6 7 8 7 7 8 10 10 10 8 8 7 6 5 4 4 5 7 7 6 6 8 9 9 7 6 4 8 18 5 9 15 15 14 14 13 13 12 10 9 11 5 6
3 5 4 7 8 7 5 7 7 6 6 8 8 11 11 12 9 4 5 5 5 6 7 8 7 7 9 9 8 7 7 5 2 17 2 7 9 11 14 13 15 15 12 15 14 11 12 22 14
7 6 6 7 7 7 8 3 8 8 5 7 7 8 8 9 6 9 9 6 6 8 7 6 6 8 9 8 7 7 3 -0 19 6 5 10 8 10 15 11 12 17 17 16 12 15 7 4 8
6 6 5 6 6 9 5 6 8 9 9 6 8 9 8 8 9 9 8 6 6 6 5 6 8 9 9 8 6 5 6 4 21 4 6 10 14 12 15 27 28 39 22 19 16 10 8 -1 34
9 6 4 8 5 6 7 6 7 11 11 8 7 10 9 9 9 9 8 6 7 7 7 7 9 9 9 7 7 2 6 19 12 8 10 14 9 10 18 17 11 40 48 22 -10 19 11 9 -9
5 9 8 5 4 4 6 8 8 7 11 9 5 7 8 11 8 8 9 7 5 6 10 13 9 8 8 6 5 4 8 20 8 10 12 13 8 13 18 36 29 -2 46 45 28 16 17 21 21
21 9 5 10 8 5 4 13 12 8 10 7 13 8 7 9 10 13 11 8 9 10 9 8 8 8 7 5 4 6 18 16 8 10 13 11 7 12 20 -4 5 18 30 28 29 1 10 14 21
4 16 22 20 9 6 6 6 7 10 14 6 13 9 10 11 11 10 7 8 8 12 9 8 9 8 4 5 5 11 24 9 5 11 13 11 9 10 8 0 8 5 46 -16 10 11 9 16 4
8 7 17 15 23 34 9 12 5 8 27 -6 15 14 9 9 6 8 9 9 8 7 7 9 8 6 5 5 7 14 16 7 8 10 14 9 10 7 8 12 11 5 7 6 7 3 8 4 9
1 5 -2 23 7 24 20 23 6 8 11 3 9 21 10 9 7 7 9 9 7 9 8 8 7 6 6 5 11 13 16 9 11 12 16 9 10 10 6 9 6 10 6 7 11 8 7 2 17
-3 -1 25 5 3 4 22 18 30 15 11 11 2 13 15 8 9 10 7 7 8 9 8 7 7 7 5 8 10 12 19 15 11 13 7 9 14 17 11 6 7 9 8 8 4 12 15 11 31
4 3 11 -1 7 8 13 18 23 15 29 23 -1 20 11 5 8 8 8 9 8 9 8 7 8 7 6 9 8 15 14 14 12 9 7 9 14 17 8 20 7 3 10 7 9 11 16 0 15
27 12 10 11 5 -0 6 1 13 19 21 26 -1 5 12 7 7 7 9 7 8 8 7 8 8 6 6 8 10 15 18 16 16 16 11 6 12 13 7 23 24 6 10 13 14 10 12 6 5
15 10 18 24 23 8 2 9 9 9 20 26 -1 9 11 14 14 13 11 9 10 10 8 9 7 6 7 9 10 10 10 9 10 13 7 12 8 17 36 10 37 16 6 18 7 3 15 37 2
Height
5867 5868 5869 5871 5875 5874 5874 5876 5875 5875 5876 5876 5877 5878 5879 5878 5879 5880 5879 5879 5879 5879 5880 5881 5882 5881 5882 5883 5883 5883 5883 5883 5884 5884 5883 5884 5884 5883 5883 5882 5883 5882 5882 5882 5882 5881 5880 5880 5881
5863 5865 5867 5868 5871 5871 5871 5871 5871 5872 5872 5872 5872 5874 5875 5874 5874 5875 5876 5876 5875 5876 5876 5877 5878 5879 5880 5881 5881 5882 5881 5882 5882 5882 5882 5881 5882 5881 5881 5881 5880 5880 5880 5880 5879 5880 5879 5879 5878
5860 5862 5864 5865 5867 5868 5869 5868 5868 5868 5867 5868 5868 5869 5869 5870 5870 5871 5872 5871 5871 5872 5873 5874 5876 5876 5878 5878 5879 5879 5880 5880 5879 5879 5879 5879 5879 5879 5879 5879 5878 5878 5878 5877 5877 5876 5877 5876 5876
5857 5859 5860 5861 5863 5864 5865 5865 5865 5863 5863 5863 5864 5864 5864 5865 5866 5867 5867 5868 5868 5870 5871 5872 5873 5874 5876 5876 5877 5877 5877 5876 5876 5876 5876 5876 5876 5876 5877 5876 5876 5876 5875 5875 5874 5874 5873 5873 5873
5854 5855 5855 5858 5858 5859 5859 5860 5861 5861 5860 5860 5860 5861 5861 5861 5862 5863 5864 5864 5865 5867 5868 5869 5870 5871 5872 5874 5874 5874 5874 5873 5873 5873 5874 5873 5873 5873 5873 5874 5873 5872 5872 5872 5871 5871 5870 5870 5870
5850 5852 5853 5854 5854 5853 5853 5854 5856 5856 5856 5857 5857 5857 5858 5857 5857 5858 5860 5861 5862 5863 5865 5866 5867 5868 5870 5871 5871 5871 5871 5871 5870 5870 5870 5870 5869 5868 5869 5870 5870 5869 5869 5868 5868 5867 5866 5866 5866
5848 5848 5849 5849 5849 5848 5847 5849 5849 5850 5851 5851 5852 5852 5853 5853 5853 5854 5855 5857 5858 5859 5861 5862 5863 5864 5866 5867 5867 5868 5868 5867 5867 5866 5866 5866 5865 5864 5866 5865 5864 5864 5864 5865 5864 5864 5863 5862 5862
5847 5846 5845 5844 5843 5843 5841 5842 5843 5843 5844 5846 5847 5848 5848 5848 5848 5850 5850 5852 5853 5854 5856 5857 5859 5859 5860 5862 5862 5863 5863 5863 5862 5862 5861 5860 5861 5860 5860 5860 5859 5858 5858 5859 5860 5859 5859 5858 5858
5843 5843 5842 5841 5840 5839 5839 5838 5838 5839 5839 5838 5840 5841 5842 5842 5842 5843 5844 5846 5848 5849 5851 5852 5853 5854 5854 5856 5857 5858 5858 5857 5856 5857 5856 5854 5855 5855 5855 5854 5854 5853 5853 5853 5853 5852 5852 5852 5853
5838 5839 5838 5839 5838 5837 5837 5836 5836 5835 5835 5835 5834 5833 5836 5837 5837 5838 5839 5841 5842 5843 5845 5847 5847 5849 5849 5850 5851 5851 5852 5852 5851 5850 5850 5849 5848 5848 5848 5848 5848 5848 5847 5846 5845 5845 5844 5846 5847
5835 5833 5832 5834 5833 5833 5832 5832 5833 5833 5833 5830 5829 5830 5831 5831 5831 5832 5833 5836 5836 5838 5839 5840 5842 5843 5843 5843 5845 5845 5845 5846 5845 5844 5843 5842 5841 5840 5839 5839 5840 5841 5839 5839 5838 5838 5838 5839 5839
5831 5828 5826 5825 5827 5827 5826 5827 5828 5828 5826 5824 5824 5825 5825 5825 5826 5827 5828 5830 5830 5832 5833 5835 5836 5837 5837 5838 5839 5839 5838 5838 5838 5837 5836 5834 5833 5832 5831 5830 5830 5830 5830 5830 5830 5830 5831 5831 5831
5825 5824 5822 5819 5818 5820 5819 5821 5821 5823 5819 5818 5818 5819 5819 5820 5821 5822 5823 5824 5825 5826 5827 5829 5829 5830 5830 5831 5831 5832 5832 5831 5830 5828 5827 5826 5825 5825 5823 5822 5820 5820 5821 5819 5819 5820 5821 5821 5822
5819 5816 5815 5815 5811 5811 5813 5813 5814 5816 5810 5813 5813 5814 5814 5815 5816 5817 5819 5819 5820 5821 5823 5824 5825 5825 5824 5825 5825 5825 5824 5823 5822 5820 5819 5818 5817 5815 5813 5811 5809 5808 5808 5808 5807 5809 5812 5813 5814
5810 5811 5809 5808 5805 5804 5803 5807 5808 5805 5807 5808 5809 5807 5808 5810 5811 5812 5813 5814 5815 5815 5817 5818 5818 5819 5818 5818 5818 5818 5817 5815 5814 5812 5810 5808 5806 5803 5801 5800 5799 5797 5797 5797 5797 5800 5802 5805 5806
5801 5801 5802 5801 5797 5797 5798 5801 5799 5800 5801 5803 5803 5803 5803 5804 5805 5806 5807 5808 5808 5808 5809 5811 5811 5811 5811 5811 5810 5810 5809 5807 5805 5804 5801 5797 5795 5792 5790 5789 5788 5787 5786 5788 5789 5791 5793 5794 5796
5793 5792 5792 5790 5789 5790 5793 5794 5790 5792 5793 5795 5797 5798 5798 5797 5798 5799 5801 5802 5803 5802 5804 5804 5804 5804 5803 5803 5803 5803 5800 5799 5797 5794 5791 5789 5786 5783 5780 5776 5775 5775 5775 5776 5778 5781 5783 5785 5787
5779 5779 5780 5782 5783 5783 5784 5787 5785 5784 5784 5788 5789 5791 5792 5791 5791 5791 5793 5794 5795 5797 5798 5798 5797 5796 5796 5796 5796 5793 5792 5790 5788 5784 5780 5776 5773 5770 5768 5766 5763 5763 5763 5765 5767 5771 5773 5776 5780
5771 5770 5770 5772 5769 5771 5773 5776 5779 5778 5776 5780 5782 5782 5784 5785 5783 5785 5788 5787 5788 5790 5791 5791 5790 5790 5790 5790 5788 5786 5785 5782 5778 5775 5772 5769 5765 5761 5758 5753 5751 5749 5750 5753 5757 5761 5765 5768 5771
5760 5759 5761 5762 5758 5760 5760 5763 5770 5769 5770 5769 5772 5774 5777 5778 5779 5779 5781 5781 5782 5782 5783 5783 5784 5784 5784 5782 5781 5780 5777 5773 5770 5767 5764 5761 5757 5753 5748 5744 5738 5733 5735 5741 5746 5751 5757 5761 5766
5750 5751 5752 5749 5747 5748 5747 5751 5758 5761 5760 5761 5762 5766 5768 5771 5773 5773 5774 5774 5775 5776 5776 5776 5777 5777 5776 5775 5774 5772 5768 5765 5762 5760 5758 5754 5751 5746 5741 5737 5732 5725 5724 5731 5734 5744 5749 5755 5756
5739 5739 5738 5737 5736 5736 5739 5737 5746 5753 5752 5752 5754 5758 5759 5762 5764 5766 5767 5767 5768 5769 5769 5770 5770 5770 5770 5768 5766 5764 5760 5757 5755 5753 5751 5747 5744 5740 5736 5733 5729 5724 5722 5726 5731 5738 5745 5749 5752
5728 5726 5726 5726 5726 5725 5729 5727 5735 5744 5745 5743 5745 5748 5751 5754 5756 5759 5759 5759 5761 5762 5763 5763 5763 5763 5762 5760 5759 5756 5753 5751 5749 5746 5744 5741 5738 5737 5734 5731 5726 5722 5720 5724 5728 5736 5741 5744 5747
5716 5715 5714 5715 5715 5714 5719 5721 5725 5734 5736 5734 5735 5738 5741 5745 5748 5751 5752 5752 5754 5755 5756 5757 5757 5757 5756 5754 5752 5749 5746 5745 5742 5740 5737 5735 5734 5732 5732 5729 5725 5722 5720 5723 5728 5732 5736 5740 5743
5705 5705 5705 5704 5704 5708 5706 5708 5714 5721 5723 5724 5726 5730 5734 5738 5741 5744 5745 5746 5747 5749 5750 5751 5752 5751 5750 5749 5746 5742 5740 5738 5736 5733 5731 5729 5728 5728 5728 5727 5725 5724 5724 5725 5728 5731 5734 5736 5738
5692 5694 5692 5697 5696 5696 5694 5696 5704 5706 5712 5715 5718 5724 5727 5730 5733 5737 5739 5740 5741 5743 5744 5745 5746 5746 5745 5743 5740 5736 5734 5732 5729 5727 5725 5724 5723 5723 5724 5723 5722 5722 5723 5724 5727 5728 5730 5732 5734
5682 5679 5689 5681 5686 5685 5687 5688 5692 5693 5700 5704 5710 5715 5719 5722 5725 5729 5732 5734 5736 5737 5738 5739 5740 5741 5740 5738 5735 5731 5728 5725 5723 5721 5720 5718 5717 5717 5716 5718 5719 5718 5719 5721 5722 5725 5726 5728 5730
5664 5671 5669 5668 5674 5675 5677 5679 5682 5683 5687 5694 5701 5706 5710 5715 5719 5722 5726 5728 5729 5730 5732 5733 5735 5737 5736 5734 5730 5727 5724 5720 5718 5717 5715 5713 5712 5710 5711 5710 5710 5712 5714 5717 5719 5722 5724 5725 5727
5649 5653 5654 5658 5663 5667 5671 5670 5672 5676 5677 5683 5690 5698 5702 5707 5711 5715 5719 5721 5723 5725 5727 5728 5730 5731 5731 5729 5725 5723 5720 5716 5714 5713 5711 5709 5706 5703 5702 5701 5702 5706 5710 5713 5715 5718 5719 5721 5724
5635 5641 5641 5645 5651 5656 5661 5665 5663 5667 5673 5674 5680 5688 5694 5699 5704 5708 5712 5715 5718 5720 5723 5724 5725 5726 5726 5724 5722 5720 5717 5714 5710 5708 5706 5704 5702 5698 5693 5692 5694 5700 5707 5711 5716 5718 5718 5718 5721